Notices

What's New in latest Release from April 7th, 2021:

- Updated Glossary, including Speed of Maximum Gust, and Total Hourly Precipitation

- Updated national and regional climate services offices contacts and prices information

- Addition of station inventory lists for 1981-2010, 1971-2000, and 1961-1990 Normals.

If you haven't already, please take our survey and provide feedback about our website: https://eccc.sondage-survey.ca/f/LanguageSelection.aspx?s=442ca660-fcf1-47c0-95a9-59707d6fd709

Hourly Data Report for March 16, 2010

HALIFAX STANFIELD INT'L A
NOVA SCOTIA

44°52'48.060" N
63°30'00.050" W
145.40 m
8202250
71395
YHZ

Download Data

Hourly Data (March 2010)
Hourly Data Report for March 16, 2010
TIME
LST
Temp Definition
°C
Dew Point Definition
°C
Rel Hum Definition
%
Precip. Amount Definition
mm

Wind Dir Definition
10's deg

Wind Spd Definition
km/h
Visibility Definition
km
Stn Press Definition
kPa
Hmdx Definition


Wind Chill Definition


Weather Definition


00:00 -3.4 -5.0 89   36 9 24.1 99.74   -7 Mainly Clear
01:00 -3.6 -4.8 91   1 13 24.1 99.71   -8 Clear
02:00 -3.8 -5.0 91   2 13 24.1 99.67   -9 Clear
03:00 -3.6 -5.1 89   2 9 24.1 99.62   -7 Clear
04:00 -4.4 -5.8 90   36 11 24.1 99.60   -9 Clear
05:00 -4.6 -5.8 91   1 13 24.1 99.61   -10 Clear
06:00 -4.3 -5.9 89   2 9 24.1 99.59   -8 Mainly Clear
07:00 -4.3 -5.8 89   2 13 24.1 99.62   -9 Mainly Clear
08:00 -2.4 -4.7 84   3 15 24.1 99.62   -7 Mainly Clear
09:00 -0.1 -3.7 77   3 13 24.1 99.64   -4 Mainly Clear
10:00 2.0 -3.7 66   3 19 24.1 99.62     Clear
11:00 4.9 -4.1 52   3 19 24.1 99.59     Clear
12:00 6.5 -3.6 48   4 9 24.1 99.53     Clear
13:00 7.6 -3.4 46   33 9 24.1 99.46     Clear
14:00 9.1 -5.2 36   33 13 24.1 99.39     Clear
15:00 9.6 -7.3 30   32 11 24.1 99.35     Mainly Clear
16:00 10.0 -6.8 30   36 15 24.1 99.33     Mainly Clear
17:00 9.3 -5.3 35   2 15 24.1 99.32     Mainly Clear
18:00 4.4 -3.7 56   16 9 24.1 99.39     Mainly Clear
19:00 0.5 -4.5 69   18 13 24.1 99.41     Mainly Clear
20:00 -0.9 -5.0 74   21 11 24.1 99.43   -5 Clear
21:00 -1.5 -5.2 76   20 9 24.1 99.43   -5 Clear
22:00 -1.5 -5.1 76   20 13 24.1 99.41   -6 Clear
23:00 -1.5 -5.2 76   20 11 24.1 99.37   -5 Clear

Notes on Data Quality.

Legend

  • E = Estimated
  • M = Missing
  • NA = Not Available*
  • [empty] = Indicates an unobserved value
Date modified: